Dewpoint
-0 0 -1 -1 -1 -1 1 1 -0 -0 -0 -1 -0 -1 -3 -3 -2 -2 -4 -1 -1 2 2 4 3 1 1 1 2 1 2 3 4 4 5 4 3 4 4 3 4 5 4 2 1 1 5 -3 -3 -2 -2 -5 -3 -2
-0 0 0 0 0 -0 -0 -0 -0 -0 -1 -1 -1 -1 -2 -3 -2 -2 -3 -3 -1 0 2 3 4 4 2 2 1 2 2 4 2 5 4 2 3 1 3 5 1 4 3 4 3 4 0 -2 -4 -5 -5 -3 -3 -3
-2 -1 -1 -1 -1 -1 -1 -1 -1 -1 -1 -1 -2 -3 -4 -4 -5 -6 -3 -4 -2 -0 1 1 2 3 4 4 2 1 2 5 4 1 3 4 4 2 4 3 3 1 0 2 2 1 2 1 -1 -2 -4 -3 -3 -3
-4 -4 -4 -4 -4 -3 -3 -2 -2 -2 -2 -2 -3 -3 -4 -6 -7 -4 -3 -1 -1 1 1 0 1 4 5 4 4 2 1 1 5 5 4 3 4 3 2 3 3 2 1 3 2 3 3 2 1 -1 -2 -2 -2 -1
-4 -4 -4 -4 -5 -5 -6 -6 -5 -5 -5 -5 -5 -5 -5 -5 -4 -3 -3 -3 -0 1 2 3 2 3 4 6 5 5 3 2 5 5 2 3 4 3 2 3 2 2 2 3 2 1 0 0 -0 -0 -0 0 1 0
-2 -2 -2 -2 -2 -3 -3 -4 -5 -6 -6 -6 -5 -4 -2 -2 -1 -2 -0 -2 -0 1 2 2 3 2 4 6 6 4 5 4 5 4 3 5 5 4 5 4 1 1 1 1 -0 0 0 -0 0 1 1 2 2 2
-1 -2 -3 -2 -1 -1 -1 -1 -1 -3 -3 -4 -4 -3 -4 -3 -2 -2 -1 -0 0 2 2 2 2 3 5 7 7 7 6 6 5 5 5 4 5 3 1 3 1 2 3 1 1 2 1 1 1 1 1 1 1 1
-3 -5 -6 -7 -4 -1 -1 -1 -1 -1 -1 -2 -3 -4 -4 -3 -4 -0 0 1 0 1 2 2 3 4 6 6 6 7 7 6 6 5 4 3 4 2 4 2 3 3 2 2 2 2 1 1 1 0 0 -0 -0 -1
-3 -4 -8 -8 -3 -1 -1 -0 -0 -1 -1 -1 -2 -2 -1 -0 -0 -2 -2 -0 0 -0 1 1 3 4 5 4 5 6 6 3 5 2 3 4 2 4 2 2 3 2 2 2 2 1 1 1 0 -0 -0 -1 -1 -2
-4 -4 -9 -8 -4 -2 -2 -1 -0 -0 -1 -1 -1 -0 -1 -1 -2 -1 1 1 2 2 4 2 4 5 4 3 3 3 3 3 5 4 4 3 4 2 2 2 3 2 2 2 1 -1 -1 -1 -0 -1 -1 -1 -1 -2
-8 -7 -9 -9 -5 -2 -2 -1 -1 -0 -0 -1 -1 0 -3 -2 1 1 1 1 2 2 3 3 4 4 4 2 3 3 2 2 5 4 3 3 4 2 2 2 3 3 2 2 1 1 1 0 -0 -1 -2 -1 -1 -2
-10 -10 -10 -10 -6 -2 -0 -1 0 0 -1 -0 2 0 1 0 0 1 1 0 1 3 2 2 3 4 4 4 2 2 3 2 5 2 4 5 2 1 2 2 2 1 1 1 1 1 0 -0 -1 -1 -1 -2 -3 -3
-8 -8 -7 -5 -5 -4 -1 -0 -1 1 -0 2 2 2 1 0 2 2 2 2 2 0 1 2 2 3 3 3 1 1 3 3 1 4 4 2 1 1 1 1 1 1 1 1 0 -0 -1 -1 -1 -1 -2 -3 -3 -6
-6 -6 -6 -5 -5 -4 -4 -2 -0 -0 0 0 -0 -0 -2 -2 -0 -0 0 1 -1 0 1 2 1 1 2 1 1 3 2 1 2 2 2 0 0 0 1 1 1 0 0 0 -0 -0 -0 -1 -2 -2 -2 -6 -11 -12
-3 -5 -5 -3 -2 -2 -2 -1 -1 -0 -1 -1 -1 -0 -1 -1 -1 -1 -1 -1 -0 1 1 1 1 2 1 1 1 2 3 2 1 1 -0 -1 -0 0 -0 -0 -0 -0 -0 -0 -1 -1 -2 -2 -3 -4 -8 -11 -13 -10
-0 -0 -0 -1 -1 -1 -1 -0 0 -1 -1 -2 -3 -2 -2 -1 -2 -2 -2 -2 -0 1 0 -0 -0 1 2 1 0 -0 1 -1 -1 -2 -2 -1 -1 -1 -1 -1 -1 -1 -1 -2 -2 -2 -3 -3 -7 -11 -12 -9 -9 -13
-2 -0 -0 -1 -0 -0 -0 -0 -2 -3 -3 -3 -3 -5 -4 -3 -4 -4 -4 -3 -0 0 0 -0 -3 -2 -2 -2 -3 -4 -4 -3 -5 -3 -2 -2 -1 -2 -2 -2 -2 -2 -2 -2 -3 -4 -6 -8 -6 -5 -6 -9 -14 -16
1 1 1 0 0 -1 -1 -2 -3 -3 -2 -3 -4 -5 -6 -6 -6 -6 -5 -3 -1 -2 -4 -3 -5 -6 -6 -5 -6 -7 -7 -7 -3 -3 -3 -3 -2 -2 -2 -2 -2 -2 -3 -4 -4 -5 -4 -5 -5 -6 -9 -14 -14 -13
0 -0 -0 0 0 -1 -3 -4 -4 -4 -4 -5 -6 -6 -7 -7 -8 -7 -6 -5 -6 -6 -6 -7 -7 -7 -7 -8 -8 -9 -9 -8 -6 -5 -4 -3 -3 -3 -3 -3 -3 -4 -4 -5 -5 -6 -6 -7 -8 -10 -12 -12 -12 -12
-4 -3 -1 -0 -1 -2 -3 -4 -4 -4 -3 -5 -9 -9 -10 -9 -10 -10 -10 -10 -10 -9 -8 -8 -9 -9 -10 -10 -10 -10 -10 -7 -5 -5 -6 -6 -5 -4 -4 -5 -5 -6 -6 -7 -7 -8 -8 -9 -9 -10 -10 -10 -11 -11
-7 -6 -6 -6 -6 -4 -3 -3 -2 -2 -3 -3 -4 -8 -9 -11 -11 -11 -12 -12 -12 -9 -10 -10 -10 -11 -11 -11 -10 -10 -9 -8 -8 -8 -9 -9 -8 -8 -8 -8 -8 -8 -8 -9 -9 -10 -10 -10 -11 -11 -11 -11 -12 -12
-14 -14 -13 -10 -9 -8 -8 -7 -5 -5 -6 -6 -6 -5 -5 -7 -8 -11 -13 -12 -11 -11 -11 -11 -12 -11 -11 -11 -10 -10 -10 -9 -9 -9 -8 -8 -9 -9 -9 -10 -9 -10 -10 -11 -11 -11 -12 -12 -12 -12 -13 -13 -13 -13
-21 -18 -14 -11 -9 -8 -7 -8 -8 -8 -9 -7 -8 -7 -7 -8 -9 -13 -11 -12 -12 -12 -12 -12 -12 -11 -11 -11 -11 -10 -10 -10 -10 -10 -11 -11 -11 -11 -11 -11 -11 -12 -12 -13 -13 -13 -13 -13 -13 -13 -14 -15 -17 -21
-16 -11 -9 -8 -8 -10 -8 -8 -7 -7 -7 -10 -9 -8 -7 -8 -12 -13 -12 -13 -13 -13 -12 -12 -12 -12 -12 -12 -12 -12 -12 -12 -12 -12 -12 -12 -13 -13 -13 -13 -13 -13 -14 -14 -16 -17 -20 -22 -25 -26 -26 -27 -27 -27
-10 -8 -9 -12 -9 -11 -14 -14 -11 -10 -12 -12 -10 -8 -8 -11 -14 -14 -13 -13 -14 -14 -13 -13 -13 -13 -14 -13 -13 -13 -13 -13 -13 -13 -14 -15 -16 -18 -20 -22 -23 -25 -25 -25 -26 -25 -25 -25 -24 -24 -23 -23 -22 -22
-8 -7 -8 -9 -10 -10 -12 -11 -9 -13 -13 -11 -11 -9 -12 -16 -16 -14 -12 -13 -14 -14 -14 -14 -14 -14 -14 -15 -16 -16 -17 -17 -18 -18 -18 -19 -20 -23 -24 -25 -24 -24 -24 -24 -24 -24 -24 -23 -23 -23 -22 -22 -21 -21
-10 -11 -9 -8 -8 -8 -11 -9 -10 -12 -10 -9 -12 -17 -18 -17 -16 -13 -13 -14 -14 -14 -14 -14 -16 -15 -15 -14 -15 -16 -16 -17 -19 -19 -20 -22 -24 -24 -24 -24 -24 -23 -23 -23 -23 -23 -22 -22 -21 -22 -21 -21 -22 -22
-8 -10 -12 -10 -9 -9 -16 -15 -13 -13 -12 -10 -14 -17 -19 -19 -16 -15 -15 -14 -14 -14 -14 -15 -16 -18 -20 -17 -16 -17 -22 -22 -21 -24 -24 -24 -24 -24 -25 -24 -24 -24 -24 -24 -24 -23 -22 -21 -21 -21 -21 -22 -22 -22
-8 -8 -10 -12 -10 -9 -10 -12 -11 -10 -11 -12 -18 -17 -16 -16 -16 -15 -15 -15 -15 -15 -15 -15 -16 -16 -16 -18 -18 -20 -23 -24 -24 -24 -25 -25 -26 -27 -27 -27 -27 -27 -26 -26 -25 -24 -24 -23 -23 -22 -22 -22 -22 -22
-8 -9 -10 -11 -14 -11 -11 -11 -13 -14 -14 -15 -16 -17 -17 -17 -16 -15 -15 -15 -15 -16 -16 -17 -17 -17 -18 -20 -20 -21 -22 -23 -25 -26 -27 -28 -27 -27 -27 -26 -26 -26 -25 -25 -25 -25 -24 -24 -24 -24 -23 -23 -23 -23
-8 -9 -10 -10 -10 -11 -11 -12 -14 -14 -16 -17 -17 -18 -18 -17 -17 -17 -17 -17 -17 -17 -17 -17 -17 -17 -17 -18 -20 -22 -23 -25 -28 -28 -28 -27 -26 -26 -25 -25 -24 -24 -24 -24 -23 -24 -24 -24 -24 -24 -24 -24 -24 -24
-9 -9 -10 -14 -10 -12 -13 -11 -12 -12 -13 -15 -16 -17 -17 -17 -18 -18 -18 -18 -18 -18 -17 -17 -17 -18 -19 -20 -23 -25 -27 -28 -27 -26 -25 -25 -25 -24 -24 -24 -24 -24 -24 -23 -23 -24 -24 -24 -24 -24 -24 -24 -24 -24
-11 -10 -10 -10 -10 -10 -11 -10 -12 -13 -13 -14 -15 -15 -16 -17 -18 -18 -18 -18 -18 -18 -19 -21 -21 -22 -24 -27 -27 -27 -27 -25 -25 -25 -25 -24 -24 -24 -24 -24 -24 -24 -24 -24 -24 -24 -24 -24 -24 -24 -24 -24 -24 -24
Wind_Speed
8 10 14 21 25 26 44 57 54 48 50 56 59 51 48 52 48 44 38 42 22 4 12 3 19 21 22 32 9 8 8 13 2 7 4 4 3 6 2 5 8 7 7 3 3 3 7 11 6 9 7 3 27 29
33 35 39 43 46 45 42 41 45 48 50 49 52 43 46 48 46 37 25 35 32 15 7 11 10 15 22 22 27 21 8 8 15 4 1 3 2 1 5 4 1 3 6 6 9 7 4 15 6 16 7 11 26 27
29 31 32 34 35 36 37 38 40 45 49 50 44 44 45 43 34 31 26 30 33 13 14 22 12 11 18 22 26 18 17 7 8 16 6 3 4 5 4 5 4 2 4 4 4 5 6 11 16 12 15 22 27 26
26 28 29 29 29 29 30 32 34 36 37 41 46 39 34 32 33 35 27 19 34 3 3 10 17 12 11 21 24 30 20 26 12 9 4 3 3 7 4 3 4 4 9 7 3 4 2 12 17 16 19 21 24 23
25 26 26 26 26 27 28 29 32 34 35 35 36 35 33 31 30 33 30 29 28 22 1 6 13 12 10 18 27 27 35 27 11 4 1 3 5 4 2 1 3 7 7 6 8 17 11 10 21 21 23 24 25 27
19 19 20 19 18 20 23 25 28 32 34 36 35 33 33 35 35 31 8 31 28 28 6 2 8 8 7 12 28 31 35 34 21 12 4 3 5 5 4 3 4 17 14 9 4 19 16 17 27 26 26 24 23 22
25 27 26 23 22 21 21 21 26 31 33 33 32 32 33 32 36 19 11 8 22 19 7 2 4 3 4 6 11 22 29 22 13 7 4 5 2 9 1 4 4 10 9 9 11 23 13 26 18 26 26 26 24 22
25 24 23 22 19 22 27 23 24 30 35 36 33 34 33 32 30 18 6 4 10 6 4 2 4 4 3 2 6 7 10 13 6 6 5 3 6 3 4 2 8 11 14 16 16 8 14 26 28 28 26 27 26 26
22 22 22 22 24 27 31 32 29 29 38 38 37 37 32 29 13 23 9 9 21 5 5 3 1 3 5 4 3 4 3 2 3 2 2 4 1 4 3 5 13 13 13 20 12 8 19 30 32 29 28 27 29 29
22 22 22 22 25 28 30 34 40 45 47 46 42 13 6 20 19 17 18 20 15 11 6 2 4 3 5 5 5 2 5 2 3 3 8 2 3 3 3 8 12 15 12 17 25 19 24 29 30 28 27 27 27 29
24 23 23 24 26 30 32 35 39 42 44 22 7 5 16 21 11 4 7 8 7 4 9 7 11 3 1 2 2 5 1 1 2 3 5 3 2 1 2 8 15 10 12 17 15 20 23 28 33 32 29 27 27 28
24 23 23 24 24 28 31 32 36 25 12 7 19 27 27 7 3 1 2 2 1 2 2 1 3 5 4 4 3 2 0 2 3 4 3 3 2 1 13 11 14 19 16 10 13 23 23 26 27 28 28 28 26 24
26 26 24 19 19 21 23 26 27 11 12 10 7 6 4 2 2 4 5 2 1 2 2 1 2 4 4 3 4 2 2 1 4 3 2 3 5 7 12 15 16 15 17 19 22 22 23 25 25 26 29 26 25 25
26 23 20 18 15 11 18 23 17 7 5 5 5 5 3 3 3 1 1 1 1 2 3 6 5 3 3 3 1 3 1 2 3 3 3 3 5 9 14 16 19 18 18 20 22 22 23 26 28 26 23 24 26 25
26 23 19 16 14 18 19 20 27 6 3 6 6 5 4 4 6 5 3 5 7 6 1 3 5 5 3 3 2 2 2 3 4 2 3 5 6 9 13 16 18 21 21 21 21 23 26 28 27 24 24 24 21 17
29 24 17 19 21 22 23 16 15 11 7 9 12 6 8 3 8 13 16 10 15 7 3 7 3 3 5 3 4 5 3 4 3 4 13 2 9 10 13 16 19 19 20 21 24 26 24 21 24 25 22 17 15 14
31 22 30 31 26 20 17 16 7 7 7 6 5 20 13 7 8 9 13 18 13 6 3 3 6 4 3 4 4 5 4 4 16 13 3 6 9 11 13 15 16 19 21 21 22 22 24 23 19 19 19 17 16 14
32 27 26 30 29 23 18 6 6 9 9 12 5 15 21 21 18 20 24 23 7 6 5 4 6 7 5 4 3 4 10 23 11 11 8 7 9 12 14 18 19 19 19 20 22 19 17 18 17 16 16 17 14 12
29 22 24 32 17 8 6 8 9 7 14 8 15 14 16 19 28 27 23 21 26 18 9 7 6 4 3 5 8 16 20 15 10 16 18 13 11 13 16 16 15 16 17 16 16 18 17 15 15 14 13 12 9 7
22 19 17 22 11 5 7 7 7 9 6 6 15 24 17 16 23 32 37 31 23 10 10 5 4 9 8 12 13 15 16 11 11 18 21 19 16 13 13 13 15 15 16 16 15 14 14 13 12 11 10 9 7 6
25 29 28 23 30 16 10 7 8 7 8 7 10 15 14 28 33 29 28 27 27 9 7 13 14 13 14 16 17 19 22 21 21 18 17 20 18 16 15 13 12 12 13 14 14 14 11 10 8 5 3 3 4 5
29 31 32 22 11 9 11 13 7 6 6 6 7 7 7 6 9 15 20 19 10 14 11 14 15 15 19 22 22 23 22 21 21 20 18 17 20 20 21 19 17 18 17 16 12 11 9 7 4 3 3 3 6 8
17 18 13 11 9 8 5 9 6 7 4 3 4 5 5 5 5 7 8 9 9 16 13 11 13 15 17 19 20 22 22 22 25 25 23 23 23 21 19 19 17 16 15 14 11 9 7 6 6 7 9 11 12 13
14 10 9 8 10 4 5 6 5 5 5 4 3 3 3 4 6 8 4 5 12 14 16 13 10 13 16 18 23 22 22 19 20 22 21 18 19 20 17 17 15 14 13 10 8 8 8 9 11 12 13 14 14 14
10 13 9 7 9 7 6 5 5 5 4 3 3 3 3 4 3 3 2 3 10 13 13 13 14 15 17 16 16 16 15 14 14 16 18 15 14 12 13 13 12 12 11 9 9 10 11 12 13 14 15 15 15 15
8 13 6 6 4 5 1 4 4 2 3 4 3 3 4 4 5 3 3 4 7 9 10 11 10 11 14 14 14 14 14 13 11 14 16 13 13 12 12 11 11 11 13 14 15 15 15 16 16 16 15 15 15 16
6 5 8 9 5 7 7 8 7 7 5 4 2 4 4 5 2 3 4 5 6 7 8 9 9 9 9 9 11 12 11 9 10 13 11 11 11 12 12 13 14 14 15 16 17 18 18 18 18 18 18 18 18 18
7 9 5 9 11 13 5 4 4 3 2 5 4 5 4 3 2 2 4 4 5 6 7 8 9 11 11 9 8 7 8 9 10 10 10 11 11 13 14 14 15 15 17 18 18 18 18 18 18 19 20 21 21 19
8 5 5 10 8 9 9 4 4 4 5 3 4 2 3 4 5 7 10 5 2 2 3 3 4 7 7 6 6 6 7 8 7 8 11 13 13 14 15 15 15 15 15 16 16 17 17 18 19 20 21 22 22 21
7 8 7 8 5 5 8 6 9 10 12 12 11 13 14 11 9 7 5 4 3 3 4 4 4 3 2 3 5 5 7 10 12 13 14 15 15 15 15 16 16 17 17 18 18 17 17 17 16 16 17 16 16 15
5 5 7 7 5 6 12 16 16 15 15 13 14 16 12 9 9 8 6 4 3 5 5 3 3 3 4 5 7 10 12 13 14 14 14 15 15 15 16 17 17 18 18 18 18 18 18 18 18 18 18 18 17 17
7 6 6 4 4 14 13 3 4 5 4 4 5 6 6 5 4 6 2 1 2 2 2 3 4 4 6 8 10 11 13 15 15 15 15 15 15 15 16 17 18 17 16 16 16 16 16 16 17 17 17 17 17 17
9 13 12 7 6 8 5 5 4 4 4 3 3 3 2 2 3 6 5 2 0 2 4 5 7 8 9 10 11 13 14 14 15 15 15 15 16 17 18 17 16 15 15 15 15 15 15 15 16 16 16 17 17 17
Wind_Direction
118 132 143 160 173 175 171 173 173 171 172 176 180 185 181 195 200 204 205 217 213 300 272 300 202 179 185 201 187 158 163 221 75 182 163 198 177 216 189 171 170 155 143 176 86 74 281 179 122 171 218 213 178 174
110 122 127 134 144 147 153 161 161 169 174 177 180 185 192 196 196 199 203 222 218 247 284 276 235 202 198 190 188 175 188 167 184 162 166 102 159 269 175 204 84 199 180 179 181 207 212 186 214 212 244 201 181 179
93 102 111 119 126 136 147 155 162 166 170 173 173 184 192 196 194 203 198 212 216 266 271 263 255 219 222 216 198 198 226 226 210 202 171 162 197 139 163 234 111 236 156 146 111 216 216 223 226 224 202 190 180 185
101 106 111 118 125 133 141 150 158 165 174 178 177 184 193 193 190 195 193 196 208 320 232 249 248 257 242 230 210 212 221 230 236 198 169 148 168 189 215 171 164 190 137 155 288 282 287 242 220 209 195 191 181 179
105 109 113 119 128 137 145 154 163 168 172 178 183 184 185 183 186 192 204 212 205 218 215 293 287 242 223 229 213 217 215 229 218 176 134 178 132 132 259 9 201 191 169 163 213 198 175 198 195 186 181 178 180 180
109 113 117 121 133 149 156 158 162 169 171 175 176 175 173 172 174 170 161 219 228 215 307 338 298 251 225 231 213 218 217 221 232 213 197 228 153 133 168 203 277 201 205 218 250 186 188 173 177 179 177 174 173 177
111 106 102 100 101 115 145 164 168 176 172 171 169 167 170 170 170 167 134 222 203 181 168 244 261 248 287 236 191 209 212 202 207 176 170 157 178 137 27 206 197 193 216 211 191 159 132 165 171 174 175 166 166 163
116 114 115 114 111 109 121 132 154 169 171 173 167 166 162 168 174 171 129 148 167 131 113 244 251 301 18 317 146 146 150 180 184 149 139 159 133 162 215 183 154 155 156 149 170 216 217 176 165 165 168 163 158 155
131 126 118 115 118 109 109 117 128 125 156 164 160 153 152 164 155 193 200 200 182 177 193 211 227 259 0 307 128 99 108 92 132 113 145 145 250 220 171 174 161 184 187 152 148 140 166 166 162 162 165 162 160 154
144 136 130 122 125 127 124 120 121 116 128 142 131 130 120 156 156 154 138 169 188 209 211 214 238 294 17 7 19 68 42 137 140 212 127 79 262 334 262 193 167 192 180 168 145 142 156 150 159 158 162 161 160 154
151 146 139 134 136 138 135 132 133 133 132 123 116 83 127 141 126 125 184 185 183 167 188 201 188 167 76 75 54 27 265 11 166 192 139 169 230 129 282 205 166 185 186 170 200 188 172 170 164 162 159 159 158 157
157 154 151 147 148 145 141 144 145 143 148 111 104 128 128 135 151 250 309 331 75 165 135 198 146 131 139 115 97 23 272 69 255 162 107 167 13 90 157 176 162 168 165 164 173 161 159 161 166 163 157 153 154 159
167 173 168 160 158 154 154 159 160 87 154 133 126 126 149 60 141 177 187 96 208 291 324 156 83 99 96 97 82 156 104 0 288 23 71 30 3 102 128 156 155 155 155 151 149 154 158 158 160 159 154 155 157 161
184 180 175 171 168 168 167 173 157 60 253 8 49 64 56 31 63 53 338 31 355 331 19 102 68 82 78 69 135 83 338 35 48 36 11 359 56 130 147 154 155 148 149 147 150 152 155 155 154 155 156 154 158 150
175 185 193 188 169 157 166 186 190 300 34 41 35 60 53 22 30 20 49 60 23 38 97 118 71 73 34 83 36 96 70 70 44 34 345 337 140 155 152 156 153 148 148 149 154 156 155 152 151 146 149 152 149 147
145 142 157 151 155 162 180 173 191 25 44 36 31 20 3 11 23 20 11 12 22 16 38 48 70 51 41 38 52 12 41 44 357 329 320 201 159 156 153 153 151 149 150 151 150 148 145 141 141 144 143 147 158 169
167 153 169 166 162 157 162 133 70 50 43 46 31 21 30 37 28 14 10 354 18 42 35 31 49 14 352 48 38 15 26 340 319 325 328 189 167 154 152 144 141 140 141 143 145 143 139 148 156 159 156 158 168 166
134 137 157 159 155 121 89 64 83 65 56 37 51 26 49 43 24 22 23 33 61 68 46 53 42 36 32 36 17 347 323 324 7 54 75 117 143 142 143 140 142 143 146 147 146 152 160 158 162 160 168 171 173 174
132 137 139 148 130 106 92 50 50 79 46 51 38 48 58 47 38 43 48 53 69 78 83 59 52 35 31 1 322 327 337 350 360 70 77 92 108 124 129 134 139 144 146 156 162 157 157 163 161 166 174 175 183 184
118 122 143 167 167 98 81 56 62 73 54 90 63 56 58 41 43 46 46 47 54 62 50 51 37 20 12 3 12 2 10 31 84 74 69 74 88 115 118 134 140 150 151 150 151 154 153 149 152 161 171 183 201 221
115 105 108 124 71 67 77 61 65 89 89 81 80 67 70 48 43 39 40 43 51 43 58 42 42 38 43 42 47 49 51 57 67 83 78 73 75 85 89 93 111 119 120 120 123 118 124 122 129 148 187 241 266 271
100 95 77 67 72 67 60 41 80 86 82 95 51 53 56 40 35 36 42 43 56 40 46 42 42 44 47 49 51 58 63 71 77 82 85 88 82 84 87 92 100 99 99 95 96 94 90 84 71 38 356 328 312 306
80 71 59 49 72 63 45 31 58 34 66 32 34 44 40 54 54 42 70 41 41 30 43 49 51 65 69 69 70 69 68 72 76 76 76 80 83 84 84 82 81 82 81 74 65 60 50 28 359 339 329 323 317 308
65 56 46 52 55 79 71 38 55 62 62 37 50 46 45 63 61 62 62 41 19 34 43 53 71 76 74 68 65 64 66 70 79 82 76 76 77 74 71 70 65 61 56 44 26 10 355 339 329 323 319 316 313 310
65 20 38 17 36 65 42 21 14 49 56 20 69 48 45 69 72 70 82 58 34 45 47 57 66 68 71 71 71 70 68 62 66 77 73 65 63 64 59 52 46 41 33 18 9 0 350 341 334 330 327 325 322 318
70 28 45 30 16 71 34 62 46 54 53 47 28 41 51 67 62 58 67 34 44 48 43 47 54 64 69 69 73 69 65 61 63 72 74 59 50 40 36 28 23 16 8 1 356 350 345 340 336 334 330 329 326 320
57 12 41 40 70 88 73 74 68 66 56 35 360 35 57 65 78 79 105 70 83 67 55 51 50 55 66 71 71 70 69 66 58 58 48 29 22 21 14 7 1 355 347 342 340 339 336 335 334 332 333 335 335 329
69 50 66 17 61 45 95 56 46 47 19 15 63 38 100 141 119 73 103 116 87 69 53 57 61 62 68 75 76 61 51 42 32 23 15 9 5 1 356 351 346 342 338 336 334 332 330 326 324 323 323 322 324 326
51 59 77 34 56 52 40 61 64 49 4 43 96 84 87 84 115 127 140 149 143 346 11 38 58 57 50 49 47 40 31 24 18 354 351 350 348 345 347 347 347 345 341 337 335 334 331 327 323 319 317 316 316 315
43 36 88 49 61 50 21 60 92 84 84 95 102 108 99 99 103 113 120 124 128 92 61 50 46 52 44 43 32 17 4 357 352 350 349 349 350 348 348 347 346 344 342 341 340 340 337 334 333 332 332 332 331 329
66 67 72 61 80 113 115 100 88 86 84 83 110 122 123 122 121 121 132 117 60 21 15 8 35 28 5 348 348 348 347 345 347 348 348 347 344 343 344 344 343 340 339 339 340 340 340 340 341 342 342 340 338 334
46 62 110 98 106 148 143 39 75 84 77 70 91 114 127 140 145 185 163 111 60 353 355 352 356 343 335 333 334 341 344 346 346 345 343 342 341 342 342 341 338 338 339 341 341 341 342 342 343 343 342 341 340 338
77 78 91 92 126 172 192 140 89 85 87 95 112 150 138 146 158 181 182 167 223 342 346 336 329 329 332 333 336 339 342 342 341 340 341 340 340 339 339 339 339 341 342 342 342 342 342 343 342 341 341 342 341 339
Height
1191 1190 1192 1197 1203 1211 1222 1233 1246 1260 1274 1289 1304 1318 1332 1340 1348 1358 1369 1374 1384 1385 1381 1381 1385 1387 1395 1400 1408 1414 1428 1425 1431 1435 1439 1441 1448 1435 1438 1429 1434 1439 1457 1472 1480 1481 1462 1432 1440 1447 1435 1429 1431 1436
1201 1200 1201 1205 1211 1220 1231 1243 1255 1268 1280 1293 1306 1319 1331 1339 1350 1361 1370 1375 1384 1391 1386 1383 1383 1386 1388 1394 1404 1406 1405 1407 1412 1422 1429 1432 1436 1444 1430 1435 1427 1433 1429 1442 1444 1441 1426 1427 1427 1427 1427 1427 1430 1433
1219 1219 1221 1225 1230 1238 1246 1255 1264 1275 1286 1298 1310 1322 1331 1340 1351 1359 1369 1375 1385 1391 1386 1384 1381 1384 1386 1390 1395 1400 1402 1403 1402 1403 1409 1416 1424 1425 1427 1425 1421 1422 1421 1428 1431 1424 1422 1423 1423 1424 1424 1426 1428 1432
1235 1235 1237 1241 1245 1251 1258 1266 1274 1284 1293 1303 1314 1324 1333 1343 1353 1361 1367 1373 1385 1385 1388 1381 1381 1380 1382 1383 1388 1393 1398 1400 1401 1401 1401 1407 1415 1412 1417 1408 1412 1413 1417 1423 1426 1422 1421 1419 1419 1420 1423 1426 1428 1432
1246 1247 1249 1252 1256 1261 1266 1273 1281 1289 1298 1307 1317 1326 1335 1345 1354 1364 1370 1376 1383 1388 1381 1378 1377 1375 1376 1378 1382 1387 1392 1395 1395 1399 1400 1400 1400 1409 1412 1409 1410 1404 1407 1415 1414 1399 1403 1406 1412 1417 1421 1424 1427 1429
1256 1256 1258 1261 1264 1268 1273 1279 1286 1293 1301 1310 1319 1328 1337 1346 1356 1365 1372 1374 1375 1382 1386 1381 1377 1372 1372 1372 1375 1380 1385 1390 1392 1391 1393 1394 1394 1397 1407 1408 1391 1392 1393 1394 1395 1396 1399 1402 1408 1414 1419 1423 1428 1431
1264 1265 1267 1270 1271 1274 1277 1281 1287 1294 1303 1312 1321 1331 1340 1348 1356 1362 1367 1370 1374 1378 1384 1385 1377 1368 1366 1368 1370 1373 1378 1383 1386 1387 1388 1391 1393 1390 1406 1401 1391 1391 1393 1394 1396 1398 1403 1403 1406 1413 1417 1421 1427 1431
1272 1274 1277 1278 1280 1280 1283 1285 1289 1295 1303 1314 1325 1335 1344 1352 1360 1362 1366 1368 1371 1375 1379 1381 1372 1367 1365 1366 1366 1369 1372 1378 1381 1384 1388 1390 1393 1396 1396 1390 1389 1387 1388 1392 1396 1395 1398 1399 1406 1413 1417 1420 1425 1430
1280 1283 1285 1287 1288 1289 1291 1293 1296 1297 1306 1318 1329 1338 1346 1354 1358 1364 1369 1372 1374 1379 1376 1375 1369 1368 1364 1357 1355 1366 1369 1377 1380 1383 1386 1389 1393 1387 1382 1384 1381 1389 1388 1385 1391 1396 1403 1402 1404 1412 1417 1422 1424 1430
1286 1289 1292 1294 1296 1298 1300 1303 1305 1309 1315 1324 1334 1338 1342 1354 1360 1365 1373 1374 1377 1373 1373 1370 1367 1363 1366 1368 1367 1367 1368 1375 1378 1382 1382 1388 1386 1382 1384 1383 1379 1390 1387 1382 1389 1405 1407 1404 1406 1413 1419 1424 1428 1433
1291 1294 1297 1299 1301 1304 1307 1311 1314 1319 1324 1329 1335 1339 1344 1350 1355 1363 1364 1363 1362 1363 1363 1364 1366 1367 1367 1368 1370 1372 1375 1377 1372 1375 1379 1384 1383 1382 1385 1387 1382 1387 1389 1389 1394 1398 1399 1401 1405 1413 1420 1426 1430 1433
1296 1299 1303 1305 1309 1315 1318 1321 1323 1325 1328 1332 1335 1345 1352 1357 1360 1359 1355 1355 1353 1356 1358 1358 1359 1361 1366 1367 1371 1376 1377 1379 1373 1372 1374 1378 1384 1382 1377 1387 1386 1391 1394 1397 1399 1399 1401 1404 1410 1417 1423 1428 1433 1442
1299 1301 1306 1314 1318 1322 1326 1328 1329 1331 1330 1332 1336 1345 1347 1356 1357 1357 1356 1356 1357 1358 1357 1357 1360 1362 1365 1369 1374 1376 1374 1376 1377 1371 1376 1387 1386 1384 1382 1391 1396 1396 1396 1398 1400 1402 1405 1410 1416 1420 1424 1430 1439 1445
1302 1306 1312 1319 1324 1326 1329 1334 1336 1335 1334 1333 1335 1346 1354 1361 1361 1362 1361 1360 1359 1357 1356 1357 1360 1363 1368 1371 1375 1373 1380 1378 1380 1384 1390 1395 1394 1394 1395 1396 1397 1399 1399 1401 1405 1408 1411 1412 1418 1425 1430 1435 1441 1443
1305 1309 1314 1322 1326 1330 1336 1338 1340 1339 1339 1340 1345 1356 1362 1364 1362 1361 1361 1361 1361 1360 1359 1360 1362 1366 1370 1374 1377 1380 1381 1387 1394 1400 1401 1398 1396 1398 1398 1399 1400 1400 1402 1406 1410 1413 1417 1421 1425 1429 1435 1438 1442 1445
1309 1316 1320 1323 1328 1335 1339 1343 1343 1343 1345 1350 1358 1362 1365 1364 1364 1363 1362 1361 1361 1361 1361 1362 1368 1372 1377 1381 1386 1395 1391 1405 1409 1407 1404 1402 1401 1401 1400 1401 1402 1403 1406 1411 1415 1420 1423 1427 1430 1435 1438 1442 1445 1448
1315 1318 1324 1329 1334 1338 1341 1345 1348 1354 1362 1368 1376 1375 1373 1374 1377 1376 1372 1367 1364 1364 1369 1373 1386 1393 1391 1396 1409 1414 1419 1419 1417 1411 1407 1405 1403 1403 1405 1406 1408 1412 1415 1419 1422 1425 1428 1433 1434 1437 1440 1444 1447 1450
1317 1322 1327 1333 1338 1346 1349 1351 1357 1367 1378 1382 1384 1385 1383 1383 1381 1377 1375 1371 1370 1374 1381 1393 1399 1409 1419 1422 1429 1430 1426 1419 1415 1411 1409 1409 1410 1410 1411 1412 1415 1418 1421 1424 1427 1430 1433 1435 1436 1438 1442 1445 1448 1451
1323 1327 1332 1334 1336 1341 1349 1359 1364 1380 1391 1391 1393 1392 1391 1392 1391 1387 1383 1381 1379 1380 1389 1406 1420 1431 1436 1438 1435 1430 1426 1421 1419 1415 1414 1414 1415 1416 1417 1419 1421 1424 1426 1429 1431 1433 1434 1437 1439 1441 1444 1447 1449 1451
1330 1331 1332 1336 1340 1344 1356 1370 1375 1384 1394 1402 1401 1399 1397 1401 1399 1394 1390 1388 1387 1393 1411 1430 1442 1446 1443 1442 1438 1434 1427 1422 1420 1420 1419 1420 1421 1421 1423 1424 1426 1428 1429 1432 1434 1436 1438 1441 1443 1445 1447 1449 1450 1451
1333 1335 1337 1339 1340 1348 1365 1377 1384 1393 1399 1403 1406 1406 1410 1409 1405 1404 1404 1406 1403 1426 1441 1448 1448 1447 1445 1443 1437 1433 1429 1426 1423 1425 1426 1427 1428 1428 1429 1431 1432 1434 1436 1438 1440 1442 1443 1444 1446 1448 1449 1449 1450 1450
1334 1337 1337 1340 1350 1365 1379 1387 1392 1397 1402 1408 1409 1411 1415 1419 1422 1425 1429 1428 1443 1452 1452 1453 1451 1449 1447 1444 1442 1438 1437 1435 1433 1433 1433 1435 1434 1435 1437 1439 1440 1441 1442 1444 1445 1446 1446 1447 1448 1449 1449 1449 1449 1449
1337 1337 1344 1354 1365 1381 1397 1396 1398 1403 1409 1413 1415 1419 1423 1428 1432 1434 1444 1455 1460 1460 1458 1457 1457 1455 1453 1452 1449 1447 1445 1444 1442 1443 1443 1443 1444 1445 1446 1446 1447 1447 1448 1448 1450 1450 1449 1450 1449 1449 1449 1448 1447 1447
1340 1347 1359 1370 1382 1396 1401 1404 1407 1411 1415 1420 1424 1430 1431 1434 1438 1446 1459 1466 1467 1465 1462 1461 1460 1459 1458 1455 1452 1453 1453 1453 1451 1451 1452 1452 1450 1451 1451 1451 1451 1451 1452 1452 1452 1451 1451 1450 1449 1448 1447 1445 1444 1443
1350 1378 1382 1393 1397 1401 1411 1415 1416 1417 1429 1429 1430 1432 1436 1438 1449 1460 1468 1472 1472 1469 1468 1466 1464 1463 1461 1461 1461 1460 1460 1459 1457 1456 1456 1457 1456 1456 1456 1455 1455 1454 1454 1454 1453 1451 1450 1449 1447 1446 1444 1443 1441 1439
1383 1399 1401 1404 1409 1412 1419 1426 1426 1432 1432 1434 1438 1438 1439 1446 1461 1469 1470 1472 1472 1471 1470 1469 1468 1467 1465 1465 1464 1464 1463 1463 1463 1460 1461 1461 1460 1459 1458 1458 1457 1456 1455 1453 1452 1450 1449 1447 1446 1444 1442 1440 1438 1436
1406 1412 1413 1413 1414 1417 1423 1427 1430 1433 1438 1441 1443 1446 1450 1467 1473 1472 1473 1473 1473 1472 1472 1471 1470 1469 1468 1467 1467 1467 1467 1467 1465 1464 1464 1464 1462 1461 1460 1459 1457 1456 1454 1452 1451 1449 1447 1445 1443 1441 1439 1437 1435 1433
1413 1418 1421 1422 1422 1424 1430 1436 1441 1446 1446 1446 1448 1460 1468 1472 1473 1474 1474 1474 1474 1474 1473 1473 1472 1471 1471 1470 1470 1470 1469 1468 1467 1467 1466 1465 1463 1461 1460 1458 1456 1455 1453 1451 1449 1447 1444 1442 1440 1438 1436 1434 1432 1430
1420 1423 1424 1428 1429 1434 1441 1444 1447 1450 1450 1449 1455 1463 1468 1470 1471 1472 1474 1475 1475 1475 1474 1474 1474 1473 1473 1473 1472 1471 1471 1470 1469 1468 1466 1464 1463 1461 1459 1457 1455 1453 1451 1449 1447 1444 1442 1439 1437 1434 1432 1430 1428 1425
1426 1426 1429 1436 1441 1448 1451 1450 1451 1452 1451 1452 1456 1464 1469 1471 1473 1474 1475 1475 1475 1475 1475 1474 1474 1474 1474 1473 1473 1472 1471 1470 1468 1467 1464 1462 1461 1459 1457 1455 1453 1450 1448 1445 1443 1441 1439 1437 1434 1432 1429 1427 1424 1422
1429 1431 1436 1443 1450 1455 1455 1455 1456 1456 1456 1459 1461 1464 1468 1473 1474 1475 1475 1475 1475 1475 1475 1475 1474 1474 1473 1473 1472 1471 1470 1468 1466 1465 1463 1461 1459 1457 1455 1452 1450 1447 1445 1442 1440 1438 1435 1433 1431 1428 1426 1424 1421 1419
1434 1437 1442 1449 1455 1457 1458 1458 1458 1460 1463 1465 1467 1469 1471 1472 1473 1475 1475 1475 1475 1475 1475 1474 1474 1473 1473 1472 1471 1469 1468 1466 1464 1462 1460 1458 1456 1454 1452 1450 1447 1445 1442 1440 1438 1435 1433 1431 1428 1426 1424 1421 1419 1416
1442 1444 1445 1449 1454 1457 1457 1458 1460 1463 1465 1467 1469 1470 1471 1472 1472 1474 1474 1474 1475 1475 1474 1473 1473 1472 1471 1469 1468 1467 1465 1464 1462 1460 1458 1456 1454 1451 1449 1447 1445 1442 1440 1438 1436 1433 1431 1429 1427 1424 1422 1419 1417 1414